Quincy, IL

4:34 AM CST on December 16, 2019 (GMT -0600)
Quincy Regional-Baldwin

Weather History for KUIN - September, 2019

Change the Weather History Date:

Thursday, September 26, 2019

  Actual Average Record
Temperature  
Mean Temperature 63 °F 62 °F  
Max Temperature 73 °F 73 °F 91 °F (1953)
Min Temperature 52 °F 51 °F 32 °F (1928)
Degree Days  
Heating Degree Days 2 5  
Month to date heating degree days 2 59  
Since 1 July heating degree days 4 64  
Cooling Degree Days 0 2  
Month to date cooling degree days 218 115  
Year to date cooling degree days 1275 1068  
Growing Degree Days 13 (Base 50)    
Moisture  
Dew Point 46 °F    
Average Humidity 57    
Maximum Humidity 83    
Minimum Humidity 30    
Precipitation  
Precipitation 0.00 in 0.11 in 1.49 in (1996)
Month to date precipitation 2.65 2.87  
Year to date precipitation 33.68 28.62  
Sea Level Pressure  
Sea Level Pressure 29.96 in    
Wind  
Wind Speed 5 mph ()    
Max Wind Speed 10 mph    
Max Gust Speed 17 mph    
Visibility 10.0 miles    
Events      
T = Trace of Precipitation, MM = Missing Value Source: Averaged Metar Reports

Daily Weather History Graph

Daily Weather History Graph

Search for Another Location

Airport or City:

Astronomy

Sep. 26, 2019 Rise Set
Actual Time 6:56 AM CDT 6:55 PM CDT
Civil Twilight 6:29 AM CDT 7:22 PM CDT
Nautical Twilight 5:57 AM CDT 7:53 PM CDT
Astronomical Twilight 5:25 AM CDT 8:25 PM CDT
Moon 4:03 AM CDT (9/26) 6:08 PM CDT (9/26)
Length of Visible Light 12h 53m
Length of Day
11h 59m
Waning Crescent, 6% of the Moon is Illuminated
Sep 26
Waning Crescent
Sep 28
New
Oct 5
First Quarter
Oct 13
Full
Oct 21
Last Quarter

Hourly Weather History & Observations

Time (CDT) Temp. Dew Point Humidity Pressure Visibility Wind Dir Wind Speed Gust Speed Precip Events Conditions
12:54 AM 60.1 °F 48.9 °F 67% 29.93 in 10.0 mi NNW 5.8 mph - N/A   Scattered Clouds
1:54 AM 61.0 °F 48.0 °F 62% 29.95 in 10.0 mi NNW 9.2 mph - N/A   Clear
2:54 AM 59.0 °F 46.9 °F 64% 29.94 in 10.0 mi NNW 6.9 mph - N/A   Partly Cloudy
3:54 AM 57.9 °F 46.9 °F 67% 29.96 in 10.0 mi NNW 9.2 mph - N/A   Clear
4:54 AM 55.0 °F 48.0 °F 77% 29.98 in 10.0 mi NW 5.8 mph - N/A   Clear
5:54 AM 53.1 °F 48.0 °F 83% 30.00 in 10.0 mi NNW 5.8 mph - N/A   Clear
6:54 AM 55.0 °F 46.9 °F 74% 30.02 in 10.0 mi North 3.5 mph - N/A   Clear
7:54 AM 54.0 °F 48.9 °F 83% 30.02 in 10.0 mi NNW 4.6 mph - N/A   Clear
8:54 AM 60.1 °F 50.0 °F 69% 30.04 in 10.0 mi NNW 5.8 mph - N/A   Clear
9:54 AM 64.9 °F 48.9 °F 56% 30.05 in 10.0 mi Calm Calm - N/A   Clear
10:54 AM 66.9 °F 46.9 °F 49% 30.05 in 10.0 mi Calm Calm - N/A   Clear
11:54 AM 70.0 °F 41.0 °F 35% 30.04 in 10.0 mi North - - N/A   Clear
12:54 PM 71.1 °F 41.0 °F 34% 30.03 in 10.0 mi North 3.5 mph - N/A   Clear
1:54 PM 72.0 °F 39.9 °F 31% 30.00 in 10.0 mi Calm Calm - N/A   Clear
2:54 PM 73.0 °F 39.9 °F 30% 29.98 in 10.0 mi Calm Calm - N/A   Clear
3:54 PM 73.0 °F 41.0 °F 31% 29.94 in 10.0 mi ESE 4.6 mph - N/A   Clear
4:54 PM 73.0 °F 42.1 °F 33% 29.92 in 10.0 mi ESE 5.8 mph - N/A   Clear
5:54 PM 71.1 °F 45.0 °F 39% 29.91 in 10.0 mi SE 6.9 mph - N/A   Clear
6:54 PM 66.9 °F 48.0 °F 51% 29.90 in 10.0 mi SSE 5.8 mph - N/A   Clear
7:54 PM 63.0 °F 48.9 °F 60% 29.90 in 10.0 mi SSE 4.6 mph - N/A   Clear
8:54 PM 60.1 °F 48.9 °F 67% 29.90 in 10.0 mi SE 6.9 mph - N/A   Clear
9:54 PM 60.1 °F 48.0 °F 64% 29.90 in 10.0 mi SSE 5.8 mph - N/A   Clear
10:54 PM 57.0 °F 48.9 °F 74% 29.88 in 10.0 mi SE 8.1 mph - N/A   Clear
11:54 PM 59.0 °F 48.9 °F 69% 29.87 in 10.0 mi SSE 5.8 mph - N/A   Clear